This is the latest recevied weather packets stored in our database for station/object KD4KKF. If no packets are shown the sender has not sent any weather packets the latest 10 day(s).
| Time | Temp. | Humidity | Pressure | Rain* | Wind** | Luminosity | Snow |
|---|---|---|---|---|---|---|---|
| 1777843447 | 21.67° C | 40% | 1017.3 hPa | 0 mm | - | 491 W/m² | - |
| 1777843144 | 22.22° C | 40% | 1017.4 hPa | 0 mm | - | 504 W/m² | - |
| 1777842840 | 22.22° C | 38% | 1017.7 hPa | 0 mm | - | 516 W/m² | - |
| 1777842535 | 22.78° C | 38% | 1017.5 hPa | 0 mm | - | 536 W/m² | - |
| 1777842232 | 22.78° C | 39% | 1017.6 hPa | 0 mm | - | 498 W/m² | - |
| 1777841928 | 22.22° C | 37% | 1017.8 hPa | 0 mm | - | 527 W/m² | - |
| 1777841625 | 22.22° C | 39% | 1017.4 hPa | 0 mm | - | 553 W/m² | - |
| 1777841321 | 21.67° C | 38% | 1017.7 hPa | 0 mm | - | 585 W/m² | - |
| 1777841018 | 22.22° C | 42% | 1017.5 hPa | 0 mm | - | 602 W/m² | - |
| 1777840716 | 21.67° C | 37% | 1017.9 hPa | 0 mm | - | 609 W/m² | - |
| 1777840413 | 22.22° C | 38% | 1017.9 hPa | 0 mm | - | 619 W/m² | - |
| 1777840110 | 21.67° C | 37% | 1018 hPa | 0 mm | - | 634 W/m² | - |
| 1777839808 | 21.67° C | 39% | 1018 hPa | 0 mm | - | 642 W/m² | - |
| 1777839506 | 21.67° C | 38% | 1018.1 hPa | 0 mm | - | 649 W/m² | - |
| 1777839202 | 22.22° C | 38% | 1018.4 hPa | 0 mm | - | 664 W/m² | - |
| 1777838900 | 21.67° C | 37% | 1018.5 hPa | 0 mm | - | 676 W/m² | - |
| 1777838596 | 22.22° C | 40% | 1018.6 hPa | 0 mm | - | 691 W/m² | - |
| 1777838294 | 21.67° C | 38% | 1018.4 hPa | 0 mm | - | 697 W/m² | - |
| 1777837990 | 22.22° C | 35% | 1018.8 hPa | 0 mm | - | 705 W/m² | - |
| 1777837688 | 21.67° C | 39% | 1019 hPa | 0 mm | - | 700 W/m² | - |
| 1777837383 | 21.67° C | 38% | 1018.9 hPa | 0 mm | - | 707 W/m² | - |
| 1777837079 | 21.11° C | 38% | 1019.2 hPa | 0 mm | - | 719 W/m² | - |
| 1777836775 | 21.67° C | 37% | 1019.3 hPa | 0 mm | - | 722 W/m² | - |
| 1777836471 | 21.11° C | 40% | 1019.2 hPa | 0 mm | - | 727 W/m² | - |
| 1777836167 | 21.11° C | 40% | 1019.5 hPa | 0 mm | - | 718 W/m² | - |
* Rain latest hour (hover to see other rain measurements)
** Current wind speed in m/s (hover to see current wind gust speed)